Temp
-6 -6 -6 -6 -6 -6 -6 -6 -6 -6 -6 -5 -6 -5 -5 -5 -5 -5 -5 -5 -6 -5 -6 -6 -6 -6 -6 -6 -6 -6 -6 -7 -8 -7 -8 -8 -8 -8 -8 -7 -8 -8 -8 -8 -7
-6 -6 -6 -6 -6 -6 -6 -6 -6 -6 -6 -6 -6 -6 -6 -5 -5 -5 -5 -5 -5 -5 -6 -6 -6 -6 -6 -6 -6 -6 -6 -7 -9 -7 -8 -8 -8 -9 -8 -8 -9 -8 -8 -8 -8
-6 -6 -6 -6 -6 -6 -6 -6 -6 -6 -6 -6 -6 -6 -6 -6 -5 -6 -5 -5 -5 -5 -6 -6 -6 -6 -6 -6 -6 -6 -6 -8 -9 -9 -8 -8 -7 -9 -8 -8 -8 -8 -8 -8 -8
-7 -7 -7 -6 -6 -6 -6 -6 -6 -6 -6 -6 -6 -6 -6 -6 -6 -6 -6 -6 -6 -6 -6 -6 -6 -6 -6 -6 -7 -6 -6 -8 -9 -9 -8 -7 -8 -8 -8 -7 -8 -7 -9 -9 -9
-7 -7 -7 -7 -7 -7 -6 -6 -6 -6 -6 -6 -6 -6 -6 -6 -6 -6 -6 -6 -6 -6 -6 -6 -6 -6 -6 -7 -7 -6 -7 -8 -9 -10 -9 -7 -9 -8 -9 -8 -8 -8 -8 -9 -9
-7 -7 -7 -7 -7 -7 -7 -7 -6 -6 -6 -6 -6 -6 -6 -6 -7 -6 -6 -6 -6 -6 -6 -6 -6 -6 -6 -7 -7 -7 -8 -7 -8 -9 -10 -8 -8 -9 -9 -10 -9 -9 -9 -9 -9
-8 -8 -7 -7 -7 -7 -7 -7 -7 -6 -6 -6 -6 -6 -6 -6 -6 -6 -7 -7 -7 -7 -7 -6 -6 -6 -7 -7 -7 -7 -7 -9 -7 -7 -10 -8 -9 -10 -10 -9 -9 -10 -10 -9 -9
-8 -8 -8 -8 -8 -8 -7 -7 -7 -7 -7 -7 -6 -7 -6 -7 -7 -7 -7 -7 -7 -7 -7 -7 -7 -7 -7 -7 -7 -7 -7 -7 -7 -7 -8 -9 -8 -10 -10 -10 -9 -10 -9 -10 -8
-8 -8 -8 -8 -8 -8 -8 -8 -7 -7 -7 -7 -7 -7 -7 -7 -7 -7 -7 -7 -7 -7 -7 -7 -7 -7 -7 -7 -7 -7 -7 -7 -7 -8 -8 -8 -8 -10 -10 -10 -9 -10 -10 -10 -10
-9 -8 -8 -8 -8 -8 -8 -8 -8 -8 -7 -7 -7 -7 -7 -7 -8 -7 -7 -7 -8 -8 -8 -7 -7 -7 -7 -7 -7 -9 -9 -9 -9 -9 -9 -10 -10 -10 -9 -10 -10 -10 -10 -10 -10
-9 -9 -8 -8 -8 -8 -8 -8 -8 -8 -8 -8 -8 -7 -7 -7 -7 -7 -8 -8 -8 -8 -8 -8 -8 -8 -8 -8 -8 -10 -9 -9 -9 -9 -9 -9 -9 -9 -10 -9 -10 -10 -10 -10 -10
-9 -9 -9 -8 -8 -8 -8 -8 -8 -8 -8 -8 -8 -8 -8 -8 -8 -8 -8 -8 -8 -8 -9 -9 -9 -9 -10 -10 -7 -8 -8 -8 -8 -9 -10 -9 -9 -8 -8 -8 -9 -10 -10 -10 -10
-9 -9 -9 -9 -9 -9 -9 -9 -9 -9 -8 -8 -8 -8 -8 -8 -8 -8 -9 -9 -9 -9 -9 -9 -11 -10 -9 -9 -9 -9 -9 -8 -9 -10 -10 -9 -8 -8 -8 -9 -9 -9 -9 -10 -10
-10 -10 -9 -9 -9 -9 -9 -9 -9 -9 -9 -8 -8 -8 -9 -8 -8 -9 -9 -9 -9 -9 -10 -10 -11 -12 -9 -9 -9 -10 -10 -11 -11 -9 -10 -10 -10 -10 -10 -10 -10 -10 -10 -10 -10
-10 -10 -10 -10 -10 -9 -9 -9 -9 -9 -11 -9 -8 -9 -9 -9 -8 -9 -9 -9 -9 -10 -10 -11 -12 -11 -10 -11 -11 -10 -10 -10 -9 -9 -9 -9 -10 -10 -10 -10 -10 -10 -10 -10 -11
-10 -10 -10 -10 -10 -10 -10 -9 -9 -10 -11 -10 -9 -9 -9 -9 -9 -9 -9 -10 -10 -10 -10 -10 -11 -10 -9 -9 -10 -10 -10 -10 -9 -9 -9 -9 -9 -10 -10 -10 -10 -10 -10 -10 -11
-11 -10 -10 -10 -10 -10 -10 -10 -10 -10 -12 -10 -9 -10 -9 -9 -10 -10 -10 -10 -10 -10 -10 -11 -12 -11 -9 -10 -11 -11 -10 -11 -11 -11 -10 -10 -11 -10 -11 -11 -10 -10 -10 -10 -11
-11 -11 -11 -11 -11 -10 -10 -10 -10 -13 -12 -9 -11 -11 -11 -10 -10 -10 -11 -10 -10 -11 -11 -12 -12 -11 -9 -11 -11 -12 -12 -11 -12 -11 -10 -10 -11 -11 -11 -11 -11 -10 -10 -10 -10
-11 -11 -11 -11 -11 -11 -11 -11 -12 -10 -10 -12 -12 -12 -11 -11 -11 -11 -11 -10 -11 -11 -11 -11 -12 -11 -10 -11 -12 -12 -12 -11 -11 -11 -11 -10 -10 -12 -12 -11 -11 -11 -11 -11 -11
-12 -12 -11 -11 -11 -11 -11 -12 -11 -11 -12 -12 -12 -12 -13 -11 -12 -12 -11 -11 -11 -12 -12 -11 -12 -12 -11 -12 -12 -11 -11 -12 -12 -12 -11 -12 -12 -12 -12 -12 -12 -11 -11 -12 -11
-12 -12 -12 -12 -12 -12 -12 -11 -11 -12 -12 -12 -12 -12 -13 -12 -12 -13 -10 -11 -12 -12 -12 -12 -12 -13 -12 -11 -12 -12 -12 -11 -12 -12 -12 -12 -13 -13 -13 -12 -11 -11 -11 -11 -11
-12 -12 -12 -12 -12 -12 -12 -11 -12 -12 -13 -13 -13 -13 -13 -13 -13 -12 -11 -12 -12 -13 -12 -13 -13 -13 -13 -12 -13 -12 -12 -12 -12 -12 -12 -12 -12 -13 -15 -14 -12 -11 -10 -11 -11
-12 -12 -13 -12 -13 -12 -12 -13 -13 -13 -13 -13 -13 -13 -13 -13 -13 -13 -12 -13 -13 -13 -13 -13 -12 -13 -13 -13 -13 -12 -12 -12 -12 -12 -12 -12 -12 -13 -13 -13 -12 -11 -11 -11 -11
-13 -13 -13 -13 -13 -13 -13 -13 -13 -13 -13 -13 -13 -13 -13 -13 -13 -13 -13 -13 -13 -13 -13 -13 -13 -13 -14 -13 -13 -13 -12 -12 -12 -12 -12 -12 -12 -12 -11 -11 -12 -12 -12 -12 -11
-13 -13 -13 -14 -13 -14 -14 -13 -14 -13 -14 -14 -13 -13 -13 -14 -13 -13 -13 -13 -13 -13 -13 -13 -13 -13 -13 -14 -14 -14 -14 -13 -13 -13 -12 -12 -13 -12 -12 -12 -12 -11 -12 -13 -13
-14 -14 -14 -14 -14 -14 -14 -14 -14 -14 -14 -14 -14 -14 -14 -14 -14 -14 -13 -13 -13 -13 -13 -13 -13 -13 -14 -14 -14 -14 -13 -14 -14 -13 -14 -14 -14 -14 -14 -14 -13 -14 -14 -14 -13
-14 -14 -14 -14 -14 -14 -14 -14 -14 -14 -14 -14 -14 -14 -14 -14 -14 -14 -14 -14 -14 -14 -14 -14 -14 -14 -17 -17 -19 -18 -17 -16 -17 -16 -16 -17 -18 -18 -19 -19 -18 -18 -19 -19 -19
Height
5845 5847 5848 5849 5850 5851 5853 5854 5855 5857 5859 5860 5862 5863 5865 5866 5867 5868 5868 5870 5871 5872 5873 5875 5876 5878 5880 5882 5885 5886 5890 5895 5901 5912 5913 5906 5904 5910 5902 5899 5890 5901 5899 5898 5895
5843 5844 5846 5847 5848 5849 5851 5852 5853 5854 5856 5857 5859 5860 5862 5863 5864 5865 5867 5868 5869 5870 5871 5873 5874 5876 5878 5880 5882 5883 5887 5892 5899 5904 5906 5902 5900 5904 5901 5904 5897 5900 5898 5897 5895
5840 5842 5843 5844 5846 5847 5849 5850 5851 5852 5853 5854 5856 5857 5859 5860 5862 5863 5864 5866 5867 5868 5869 5870 5872 5874 5876 5878 5880 5882 5885 5888 5893 5897 5897 5895 5900 5898 5897 5893 5904 5892 5897 5896 5895
5838 5839 5840 5842 5844 5845 5846 5847 5848 5850 5851 5852 5853 5854 5856 5857 5862 5860 5862 5864 5865 5866 5867 5868 5870 5872 5874 5876 5878 5879 5882 5884 5888 5891 5890 5892 5898 5892 5893 5893 5891 5882 5886 5894 5895
5835 5836 5837 5839 5840 5842 5843 5844 5845 5846 5847 5848 5850 5851 5853 5855 5858 5858 5860 5861 5862 5863 5865 5866 5867 5868 5871 5873 5875 5877 5879 5882 5883 5887 5884 5887 5889 5893 5890 5889 5891 5876 5879 5893 5894
5831 5833 5834 5835 5837 5838 5839 5840 5841 5842 5844 5845 5847 5849 5851 5853 5855 5856 5858 5859 5860 5861 5862 5864 5864 5866 5868 5870 5872 5874 5875 5878 5880 5881 5883 5883 5886 5890 5894 5892 5890 5880 5878 5893 5892
5828 5829 5830 5832 5832 5834 5835 5837 5838 5839 5841 5842 5844 5845 5847 5850 5850 5853 5855 5856 5858 5859 5860 5861 5862 5863 5864 5866 5868 5870 5872 5873 5876 5878 5881 5880 5882 5885 5892 5893 5896 5892 5892 5886 5889
5826 5827 5827 5828 5829 5830 5832 5833 5835 5836 5837 5839 5840 5842 5844 5846 5847 5849 5851 5853 5854 5856 5857 5858 5859 5861 5862 5864 5866 5868 5870 5870 5873 5874 5876 5877 5878 5882 5887 5889 5892 5891 5889 5887 5885
5823 5824 5825 5825 5826 5827 5829 5830 5831 5832 5834 5836 5837 5839 5841 5841 5844 5845 5846 5848 5851 5852 5854 5855 5856 5858 5860 5861 5863 5866 5869 5869 5871 5872 5871 5872 5875 5879 5882 5887 5889 5888 5889 5887 5884
5821 5822 5822 5823 5823 5825 5826 5827 5828 5829 5831 5833 5834 5836 5839 5840 5841 5842 5842 5845 5847 5849 5851 5852 5854 5856 5857 5858 5862 5865 5868 5869 5871 5875 5872 5872 5873 5877 5879 5881 5885 5886 5886 5888 5887
5819 5819 5819 5820 5821 5822 5823 5824 5827 5828 5828 5830 5831 5831 5833 5835 5837 5839 5840 5842 5844 5845 5847 5848 5851 5853 5855 5857 5860 5860 5861 5864 5868 5869 5870 5871 5873 5875 5875 5876 5879 5883 5880 5881 5883
5816 5817 5817 5818 5819 5819 5820 5822 5823 5824 5824 5825 5827 5827 5829 5831 5832 5834 5837 5839 5840 5841 5843 5846 5847 5848 5850 5851 5852 5855 5858 5860 5861 5861 5862 5863 5864 5866 5867 5869 5873 5877 5880 5877 5877
5814 5815 5815 5816 5817 5817 5819 5820 5820 5821 5821 5823 5823 5824 5826 5827 5828 5831 5832 5833 5836 5837 5839 5842 5845 5841 5844 5847 5849 5850 5852 5854 5855 5857 5857 5856 5858 5861 5863 5863 5865 5868 5871 5873 5874
5813 5813 5813 5814 5816 5815 5817 5818 5818 5819 5818 5819 5820 5822 5823 5824 5825 5827 5828 5830 5831 5833 5834 5837 5841 5837 5840 5843 5844 5845 5849 5849 5849 5850 5851 5854 5853 5857 5860 5858 5859 5860 5861 5864 5866
5811 5811 5812 5812 5813 5814 5815 5815 5815 5816 5817 5812 5818 5819 5820 5820 5824 5823 5825 5826 5826 5828 5831 5835 5835 5832 5835 5837 5835 5839 5840 5839 5843 5845 5846 5848 5849 5852 5855 5858 5859 5856 5849 5844 5842
5808 5808 5809 5810 5810 5811 5812 5812 5813 5815 5814 5810 5814 5814 5816 5816 5818 5820 5821 5822 5823 5825 5827 5827 5826 5827 5828 5831 5831 5834 5835 5835 5837 5839 5840 5844 5845 5848 5849 5847 5840 5839 5837 5837 5836
5804 5805 5805 5806 5808 5808 5808 5809 5811 5811 5809 5807 5811 5810 5809 5813 5813 5814 5816 5817 5818 5821 5823 5824 5825 5818 5824 5826 5827 5825 5829 5831 5834 5838 5839 5845 5843 5829 5828 5828 5829 5829 5830 5830 5830
5800 5800 5801 5802 5803 5804 5804 5806 5807 5809 5802 5804 5807 5806 5805 5807 5808 5809 5810 5810 5813 5815 5817 5821 5820 5813 5815 5820 5821 5822 5821 5823 5822 5828 5830 5833 5836 5817 5821 5821 5821 5824 5824 5822 5821
5795 5795 5796 5797 5798 5799 5800 5800 5798 5797 5801 5800 5801 5800 5800 5801 5802 5803 5803 5806 5808 5809 5811 5814 5811 5808 5808 5815 5815 5813 5814 5814 5816 5817 5819 5825 5830 5817 5812 5809 5810 5813 5814 5816 5815
5789 5790 5791 5792 5792 5793 5794 5793 5792 5795 5794 5795 5795 5795 5797 5793 5797 5797 5795 5800 5802 5803 5804 5805 5808 5801 5801 5808 5804 5803 5809 5808 5807 5808 5810 5815 5819 5807 5802 5796 5796 5797 5798 5799 5802
5784 5784 5786 5786 5786 5787 5787 5783 5789 5788 5788 5789 5789 5789 5790 5788 5793 5787 5787 5795 5794 5797 5796 5798 5800 5797 5797 5795 5798 5796 5795 5798 5802 5803 5801 5802 5809 5796 5785 5779 5781 5782 5782 5782 5783
5779 5778 5780 5779 5781 5780 5778 5781 5782 5781 5781 5782 5782 5782 5783 5783 5784 5780 5782 5787 5788 5788 5788 5792 5790 5791 5788 5785 5788 5787 5785 5788 5789 5790 5790 5789 5794 5786 5766 5764 5767 5769 5772 5774 5773
5772 5772 5774 5774 5773 5772 5773 5773 5773 5774 5775 5775 5775 5776 5776 5775 5776 5774 5777 5779 5780 5780 5781 5783 5782 5783 5779 5778 5775 5774 5776 5777 5776 5776 5778 5775 5773 5767 5751 5752 5752 5752 5754 5756 5760
5767 5767 5767 5767 5767 5765 5767 5766 5767 5767 5768 5768 5769 5768 5769 5768 5767 5767 5769 5770 5771 5771 5772 5772 5772 5774 5770 5765 5762 5760 5761 5760 5760 5762 5759 5757 5752 5745 5745 5745 5744 5738 5732 5731 5732
5762 5761 5761 5760 5761 5759 5760 5759 5759 5759 5760 5761 5761 5760 5760 5760 5759 5759 5760 5760 5761 5761 5761 5761 5760 5761 5758 5756 5754 5750 5745 5740 5742 5742 5742 5739 5735 5725 5727 5724 5711 5717 5716 5711 5706
5757 5756 5755 5756 5755 5754 5753 5752 5752 5753 5753 5753 5752 5752 5750 5750 5751 5750 5751 5750 5750 5749 5749 5748 5747 5746 5742 5739 5740 5733 5733 5729 5725 5729 5724 5717 5713 5709 5703 5694 5694 5691 5685 5684 5681
5753 5751 5750 5750 5749 5748 5747 5746 5745 5745 5745 5744 5743 5741 5741 5741 5739 5739 5739 5738 5738 5737 5737 5736 5733 5733 5729 5727 5725 5718 5715 5714 5710 5708 5707 5703 5699 5694 5689 5679 5676 5675 5669 5664 5660
Wind_Speed
15 15 15 14 13 12 12 12 12 13 13 14 15 14 14 14 12 13 12 11 11 9 10 10 11 14 14 16 17 19 21 22 12 7 13 8 13 7 23 18 7 14 16 17 15
15 15 15 14 13 13 13 13 14 14 14 15 15 14 15 14 13 14 12 11 11 11 11 10 11 13 14 16 18 19 17 24 8 16 16 30 19 16 22 10 31 13 13 14 7
16 16 15 15 15 14 14 14 15 16 16 16 16 15 15 15 15 15 13 12 12 11 11 11 11 12 13 16 17 19 17 24 8 13 24 34 34 15 27 9 15 19 11 10 11
18 18 17 17 17 16 16 16 16 17 17 17 17 17 16 16 12 15 14 12 12 11 12 11 11 9 10 12 15 19 18 25 17 18 26 34 35 23 14 14 28 31 10 14 13
17 18 19 18 18 18 18 18 17 17 17 18 17 17 16 17 12 15 14 13 12 11 12 12 12 11 9 11 14 15 18 29 24 15 29 15 25 20 6 17 25 33 3 15 15
17 18 18 19 19 19 19 18 18 18 18 18 18 18 17 18 15 15 14 13 13 11 11 13 14 13 12 12 13 13 16 22 32 25 21 21 16 12 15 16 17 26 17 16 16
15 16 17 18 18 18 18 18 18 18 19 19 18 18 18 16 19 17 17 14 15 14 13 14 14 14 16 14 14 15 19 20 20 25 21 19 17 17 14 7 12 26 15 23 16
13 14 15 16 16 17 17 17 17 17 18 18 18 18 18 19 20 20 18 18 18 17 16 16 16 16 15 16 15 15 17 17 14 15 20 20 19 12 14 14 17 17 17 20 18
13 13 13 14 15 16 16 16 16 17 17 17 17 18 15 20 18 19 20 20 19 18 18 18 18 17 16 16 16 15 13 15 14 13 20 21 17 14 15 14 16 24 16 17 25
12 12 13 13 13 14 15 16 16 17 18 18 17 18 16 17 16 16 18 19 20 19 19 18 18 18 18 17 13 1 14 16 16 6 15 18 20 16 17 20 17 24 24 19 20
11 12 13 12 12 13 14 15 17 17 18 17 17 18 18 17 18 19 18 16 15 17 18 17 17 18 19 17 16 18 28 22 17 15 18 22 28 30 28 24 23 21 28 30 26
11 11 11 11 12 12 13 14 15 15 16 16 16 17 17 17 17 17 17 18 16 14 14 12 14 16 13 22 23 21 22 27 25 25 21 23 33 31 29 26 27 27 25 32 29
10 10 10 10 11 12 11 11 11 12 14 14 15 16 16 16 16 12 14 15 16 15 13 12 5 20 22 19 19 21 22 23 25 19 18 25 27 24 23 24 25 28 32 35 33
10 9 9 10 10 11 11 12 12 13 15 17 17 14 15 16 16 14 13 13 14 14 14 16 15 25 20 17 20 21 15 16 18 25 24 21 23 11 14 20 17 21 20 24 31
13 13 12 11 11 11 11 11 12 13 8 25 14 15 16 20 13 16 15 15 16 15 15 6 15 28 23 16 22 22 24 28 28 28 28 26 24 20 16 16 16 22 30 31 34
16 16 16 15 14 13 12 12 13 13 14 24 15 18 18 21 19 17 16 18 18 17 15 22 23 24 23 19 21 20 21 24 25 22 24 19 15 14 18 22 33 34 39 40 40
19 18 18 18 16 16 15 14 15 14 22 30 21 21 24 19 20 20 18 20 22 18 17 18 17 32 21 20 18 24 18 16 13 14 17 11 13 23 25 31 37 40 39 40 41
19 18 18 19 18 18 17 17 17 13 27 25 22 23 25 24 23 22 22 24 22 20 21 13 20 32 27 21 22 20 24 24 22 20 21 24 12 27 27 32 36 35 41 40 42
19 19 19 20 18 18 19 19 23 27 22 23 24 26 28 25 26 25 28 25 23 24 25 24 33 35 34 21 23 28 26 31 29 28 29 25 23 31 36 42 42 40 42 48 49
19 22 21 22 22 22 21 23 26 23 25 25 23 28 20 30 24 25 31 26 25 25 26 28 27 36 34 24 30 32 27 29 32 29 30 19 13 32 39 47 49 49 51 50 51
18 21 21 23 23 23 24 31 23 25 27 26 27 27 27 33 22 31 33 22 25 24 27 26 26 32 30 33 30 33 34 34 32 31 33 35 22 33 44 52 51 50 52 53 53
21 23 19 23 24 25 30 27 24 26 28 28 28 28 27 28 26 34 33 24 24 26 29 25 29 29 34 38 34 38 40 38 38 41 41 44 41 39 38 52 60 61 60 60 59
21 24 22 24 25 30 28 26 27 26 26 27 28 29 27 30 31 33 31 28 29 29 30 30 32 32 37 41 45 45 45 44 45 47 47 50 53 53 63 65 69 70 68 67 64
19 21 20 22 24 28 25 28 27 27 27 28 28 28 29 31 32 33 31 32 33 34 35 36 37 37 39 46 50 51 51 52 53 53 56 59 62 67 67 69 71 74 77 78 78
16 16 18 22 22 25 25 28 27 29 29 30 30 31 32 32 34 35 36 38 39 40 40 41 42 42 44 45 48 48 53 59 60 62 63 66 68 73 74 75 82 81 79 80 83
15 17 18 18 20 22 24 26 27 26 28 29 31 32 35 37 36 40 41 42 42 43 44 45 46 46 48 50 50 53 57 59 63 64 64 67 68 67 69 73 78 77 79 79 83
15 16 18 19 21 23 23 25 27 28 29 31 32 35 36 37 40 41 43 44 45 45 46 47 48 47 36 40 29 41 49 52 50 56 56 54 55 48 40 43 45 45 47 51 54
Wind_Direction
237 237 239 241 244 247 247 248 244 242 238 241 241 240 240 240 242 245 245 246 237 233 230 231 220 218 207 203 202 203 205 160 118 283 269 267 280 228 267 280 40 278 294 304 311
240 240 239 241 244 246 247 246 246 245 244 244 246 245 243 242 240 242 239 242 238 229 230 231 224 220 210 206 204 209 209 146 137 218 231 248 265 217 241 249 275 265 296 318 293
251 248 245 245 245 245 247 245 246 246 246 247 247 246 244 241 241 241 238 237 238 233 230 229 229 222 214 207 208 211 188 150 148 268 234 232 242 245 256 130 260 276 273 316 334
249 250 249 245 245 245 246 248 247 248 248 246 246 244 242 242 237 240 240 237 234 232 230 231 235 229 222 215 211 214 202 172 173 287 252 249 239 258 254 220 235 231 151 321 310
250 249 249 248 249 248 246 249 251 252 252 250 247 244 243 243 238 241 238 235 236 233 233 232 238 241 233 224 219 219 217 190 183 217 263 250 219 195 330 288 270 275 110 294 303
252 251 250 251 251 252 251 250 251 252 251 249 248 245 244 244 241 240 237 234 237 234 235 236 238 240 237 231 229 215 233 215 211 230 262 264 235 232 227 236 273 307 317 272 288
256 254 251 249 249 250 250 249 249 249 250 249 249 249 248 246 242 240 238 235 235 232 230 233 237 240 239 235 232 229 230 238 233 240 237 260 250 234 234 203 263 259 248 278 275
258 257 254 251 247 248 249 248 250 250 251 250 251 251 250 250 246 245 242 237 235 235 233 234 238 241 241 243 245 239 246 252 259 257 241 244 240 253 255 222 239 259 283 282 278
260 257 256 252 250 248 246 246 248 251 252 252 251 253 253 252 249 248 247 245 242 238 238 238 237 240 239 240 244 248 258 270 265 311 276 254 244 233 218 251 233 264 254 274 293
260 256 253 252 252 251 250 250 251 251 252 253 253 254 253 257 251 246 247 247 247 244 243 245 248 247 244 239 240 328 313 307 309 244 266 255 260 255 232 204 251 255 254 245 267
256 256 253 256 253 250 249 248 248 250 252 251 251 255 250 252 250 247 249 252 253 251 247 246 252 254 252 247 234 190 225 205 194 219 230 217 236 228 237 217 214 249 278 277 232
252 252 250 254 257 253 253 253 253 250 253 251 250 253 251 253 250 249 249 249 250 250 247 246 250 249 234 229 247 251 250 235 232 235 244 241 238 252 258 257 233 230 249 276 282
249 249 251 250 250 252 257 257 255 255 256 252 250 249 249 250 251 248 246 246 243 241 243 232 211 245 248 253 250 250 248 249 250 244 250 264 273 277 283 283 273 265 250 241 251
240 241 248 250 251 251 250 252 252 257 262 250 250 254 252 255 249 240 240 237 234 230 230 232 222 261 252 255 256 250 252 258 254 253 261 265 277 281 284 301 309 302 295 271 256
239 239 244 251 256 256 255 253 252 253 276 262 252 252 250 251 260 245 241 238 235 217 227 231 239 248 257 242 233 240 232 247 259 264 267 267 272 277 273 277 277 246 240 231 227
246 245 247 253 256 261 260 253 248 242 236 252 266 262 259 255 251 248 242 241 242 239 228 228 240 254 250 262 267 266 260 261 271 274 274 294 310 308 296 240 241 239 240 238 236
249 249 251 254 260 262 266 267 253 242 245 257 257 262 263 260 253 250 245 242 244 243 236 236 250 260 254 254 258 260 270 277 276 279 293 319 264 246 247 231 233 237 240 242 243
253 252 252 254 257 265 266 263 260 226 238 271 262 260 258 258 252 250 244 242 244 241 238 210 230 259 262 259 256 261 252 253 251 225 222 222 229 273 251 240 231 238 241 243 249
254 252 253 255 258 262 265 262 241 254 270 257 255 257 260 259 256 252 252 252 240 242 240 234 226 246 262 268 264 258 257 264 274 268 262 250 232 280 276 278 270 258 250 250 246
258 254 257 259 261 261 262 257 263 267 261 255 254 254 259 264 253 254 250 253 248 248 247 248 241 258 265 263 261 256 265 259 259 267 273 278 271 258 257 256 257 262 261 257 252
259 260 258 258 258 259 257 259 272 255 255 253 252 257 246 254 259 256 257 254 254 252 251 252 251 258 270 261 260 274 263 261 264 264 266 262 255 264 264 264 261 254 251 254 250
259 260 258 258 259 258 254 266 263 255 255 255 254 252 249 257 248 256 263 266 255 256 258 261 262 262 265 272 273 262 265 267 269 269 269 271 260 258 258 260 263 261 260 266 268
262 262 255 255 253 256 261 261 258 256 255 256 256 255 255 256 261 260 262 265 263 263 264 264 264 271 272 271 266 269 273 273 272 271 269 266 268 258 257 262 273 278 277 275 271
264 264 263 260 259 261 264 258 259 258 255 254 255 256 257 260 261 266 265 266 268 268 269 270 270 268 265 273 280 281 278 277 274 273 271 272 271 270 271 274 275 274 276 274 273
268 269 266 264 264 264 263 262 258 256 257 255 256 258 260 262 263 266 269 269 271 272 272 272 272 272 271 269 271 272 273 276 279 277 277 276 277 277 279 276 275 276 272 270 271
273 273 270 268 265 263 262 263 264 263 261 259 259 262 263 263 267 266 268 270 272 273 274 275 276 275 275 275 276 274 273 276 277 278 280 281 281 283 281 281 278 277 276 275 272
275 271 269 266 268 271 269 268 268 264 263 266 265 264 266 269 269 270 271 272 273 274 275 276 276 276 282 284 291 284 285 287 285 284 283 285 289 293 291 285 285 285 286 285 283